HIMAWARI-8 (40267 NORAD) Tracking and Keplerian Element Data

This shows tracking and keplerian element data for the satellite.

Feedback or suggestion? Click here.




ElementValue
Catalog40267
NameHIMAWARI-8
Epoch Orbit2001
Epoch Day91.88591321
Epoch Year2020
RAAN119.9869
Inclination0.0351
Eccentricity0.0001042
Argument of Perigee244.6451
Mean Anonmoly284.6659
Mean Motion1.00272563
Decay Rate-2.79E-06
L11 40267U 14060A 20091.88591321 -.00000279 00000-0 00000-0 0 9998
L22 40267 0.0351 119.9869 0001042 244.6451 284.6659 1.00272563 20015

Live tracking and technical data element details for HIMAWARI-8 (NORAD 40267). HIMAWARI-8 can be tracked NOW for your location showing map with azimuth and elevation plus other details from your city location.

Track the satellite on the map from your city or location and see movement details for azimuth, elevation, latitude, longitude, range, height, and movement on the map or in text.







IsCatalogInMostPopularTable: catalog: 40267, numindb: 357
Update: records affected: 1



GetName: 40267 HIMAWARI-8

Hit Count: updated at: Thu, 02 Apr 2020 03:08:04 GMT